Location: Clarion
(42.7316°N, 93.7330°W)
Time: 02:08:55
(UTC+00:00)

Gbstr 26 Del rocket - Pass Details

Date: 22 April 2026
Orbit: 490 x 1215 km, 51.8° (Epoch: 20 May)

Event Time Altitude Azimuth Distance (km) Brightness Sun altitude
Exits shadow 08:25:44 34° 26° (NNE) 832 4.2 -27.2°
Drops below altitude 10° 08:29:01 10° 88° (E) 1,680 5.7 -26.9°
Sets 08:31:19 0° 98° (E) 2,583 6.6 -26.6°
